Reidsville, NC

4:28 AM EDT on May 22, 2018 (GMT -0400)
Reidsville

Weather History for KSIF - May, 2014

Change the Weather History Date:

Tuesday, May 13, 2014

  Actual Average (KGSO) Record (KGSO)
Temperature  
Mean Temperature 75 °F -  
Max Temperature 91 °F 76 °F 94 °F (1914)
Min Temperature 59 °F 54 °F 38 °F (1960)
Cooling Degree Days 10    
Growing Degree Days 25 (Base 50)    
Moisture  
Dew Point 63 °F    
Average Humidity 74    
Maximum Humidity 100    
Minimum Humidity 34    
Precipitation  
Precipitation 0.00 in - - ()
Sea Level Pressure  
Sea Level Pressure 30.12 in    
Wind  
Wind Speed 2 mph (SSW)    
Max Wind Speed 9 mph    
Max Gust Speed -    
Visibility 8 miles    
Events      
Averages and records for this station are not official NWS values.
T = Trace of Precipitation, MM = Missing Value Source: NWS Daily Summary

Daily Weather History Graph

Daily Weather History Graph

Search for Another Location

Airport or City:

Astronomy

May. 13, 2014 Rise Set
Actual Time 6:14 AM EDT 8:17 PM EDT
Civil Twilight 5:45 AM EDT 8:46 PM EDT
Nautical Twilight 5:10 AM EDT 9:21 PM EDT
Astronomical Twilight 4:33 AM EDT 9:58 PM EDT
Moon 7:19 PM EDT (5/13) 5:26 AM EDT (5/13)
Length of Visible Light 15h 00m
Length of Day
14h 03m
Waxing Gibbous, 98% of the Moon is Illuminated
May 13
Waxing Gibbous
May 14
Full
May 21
Last Quarter
May 28
New
Jun 5
First Quarter

Hourly Weather History & Observations

Time (EDT) Temp. Heat Index Dew Point Humidity Pressure Visibility Wind Dir Wind Speed Gust Speed Precip Events Conditions
12:15 AM 63.0 °F - 62.2 °F 97% 30.13 in 5.0 mi Calm Calm - N/A   Clear
12:35 AM 62.8 °F - 62.2 °F 98% 30.12 in 5.0 mi Calm Calm - N/A   Clear
12:55 AM 62.1 °F - 61.5 °F 98% 30.12 in 4.0 mi Calm Calm - N/A   Clear
1:15 AM 61.7 °F - 61.3 °F 99% 30.12 in 4.0 mi Calm Calm - N/A   Clear
1:35 AM 61.0 °F - 60.8 °F 99% 30.12 in 4.0 mi Calm Calm - N/A   Clear
2:15 AM 60.4 °F - 60.3 °F 99% 30.13 in 2.5 mi Calm Calm - N/A   Clear
2:35 AM 60.8 °F - 60.6 °F 99% 30.12 in 4.0 mi Calm Calm - N/A   Clear
2:55 AM 60.1 °F - 59.9 °F 99% 30.12 in 4.0 mi Calm Calm - N/A   Clear
3:35 AM 59.7 °F - 59.5 °F 99% 30.13 in 4.0 mi Calm Calm - N/A   Clear
3:55 AM 59.4 °F - 59.2 °F 99% 30.13 in 3.0 mi Calm Calm - N/A   Clear
4:15 AM 60.6 °F - 60.6 °F 100% 30.13 in 3.0 mi Calm Calm - N/A   Clear
4:35 AM 60.3 °F - 60.3 °F 100% 30.13 in 3.0 mi Calm Calm - N/A   Clear
4:55 AM 60.3 °F - 60.3 °F 100% 30.13 in 3.0 mi SW 4.6 mph - N/A   Clear
5:15 AM 62.6 °F - 62.4 °F 99% 30.12 in 7.0 mi SW 3.5 mph - N/A   Clear
5:35 AM 61.7 °F - 61.7 °F 100% 30.12 in 7.0 mi Calm Calm - N/A   Clear
5:55 AM 61.9 °F - 61.7 °F 99% 30.12 in 7.0 mi Calm Calm - N/A   Clear
6:15 AM 60.8 °F - 60.6 °F 99% 30.12 in 4.0 mi Calm Calm - N/A   Clear
6:35 AM 61.3 °F - 61.0 °F 99% 30.13 in 5.0 mi Calm Calm - N/A   Clear
6:55 AM 61.7 °F - 61.5 °F 99% 30.14 in 5.0 mi Calm Calm - N/A   Clear
7:15 AM 63.3 °F - 62.8 °F 98% 30.14 in 10.0 mi Calm Calm - N/A   Clear
7:35 AM 64.4 °F - 63.3 °F 96% 30.14 in 10.0 mi SW 3.5 mph - N/A   Clear
7:55 AM 66.0 °F - 64.0 °F 93% 30.15 in 10.0 mi SSW 5.8 mph - N/A   Clear
8:15 AM 68.2 °F - 64.4 °F 88% 30.15 in 10.0 mi SW 4.6 mph - N/A   Clear
9:15 AM 73.2 °F - 64.6 °F 74% 30.15 in 10.0 mi Calm Calm - N/A   Clear
9:35 AM 74.7 °F - 65.1 °F 72% 30.16 in 10.0 mi SW 4.6 mph - N/A   Clear
10:15 AM 78.4 °F - 65.8 °F 65% 30.16 in 10.0 mi SW 3.5 mph - N/A   Clear
12:35 PM 87.6 °F 90.1 °F 66.2 °F 49% 30.15 in 10.0 mi WSW 6.9 mph - N/A   Clear
12:55 PM 88.3 °F 90.5 °F 66.0 °F 47% 30.14 in 10.0 mi WSW 9.2 mph - N/A   Clear
1:15 PM 88.5 °F 90.1 °F 64.6 °F 45% 30.14 in 10.0 mi SSW 8.1 mph - N/A   Clear
1:35 PM 88.9 °F 89.7 °F 63.0 °F 42% 30.13 in 10.0 mi WSW 8.1 mph - N/A   Clear
1:55 PM 89.8 °F 90.4 °F 62.2 °F 40% 30.13 in 10.0 mi SW 3.5 mph - N/A   Clear
2:15 PM 90.3 °F 91.2 °F 63.0 °F 40% 30.12 in 10.0 mi West 5.8 mph - N/A   Clear
2:35 PM 89.8 °F 90.0 °F 61.9 °F 39% 30.11 in 10.0 mi SW 6.9 mph - N/A   Clear
2:55 PM 90.5 °F 90.1 °F 60.1 °F 36% 30.11 in 10.0 mi SSW 6.9 mph - N/A   Clear
3:15 PM 90.7 °F 90.1 °F 59.7 °F 35% 30.11 in 10.0 mi SSW 5.8 mph - N/A   Clear
3:35 PM 90.9 °F 90.0 °F 59.0 °F 34% 30.10 in 10.0 mi South 4.6 mph - N/A   Clear
3:55 PM 91.0 °F 90.5 °F 59.7 °F 35% 30.09 in 10.0 mi SW 8.1 mph - N/A   Scattered Clouds
4:15 PM 90.7 °F 90.4 °F 60.1 °F 36% 30.09 in 10.0 mi South 5.8 mph - N/A   Clear
4:35 PM 91.0 °F 90.9 °F 60.8 °F 36% 30.08 in 10.0 mi South 6.9 mph - N/A   Clear
4:55 PM 91.0 °F 91.9 °F 62.6 °F 39% 30.08 in 10.0 mi SE 4.6 mph - N/A   Scattered Clouds
5:15 PM 89.6 °F 89.2 °F 60.4 °F 37% 30.08 in 10.0 mi SSW 6.9 mph - N/A   Scattered Clouds
5:35 PM 88.0 °F 88.7 °F 62.8 °F 43% 30.08 in 10.0 mi SSE 8.1 mph - N/A   Scattered Clouds
5:55 PM 89.6 °F 89.2 °F 60.4 °F 37% 30.08 in 10.0 mi South 6.9 mph - N/A   Clear
6:15 PM 89.1 °F 88.8 °F 60.3 °F 38% 30.08 in 10.0 mi SSW 5.8 mph - N/A   Clear
6:35 PM 87.6 °F 87.2 °F 59.9 °F 39% 30.08 in 10.0 mi South 5.8 mph - N/A   Clear
6:55 PM 86.7 °F 87.0 °F 62.1 °F 43% 30.08 in 10.0 mi South 4.6 mph - N/A   Clear
7:15 PM 85.1 °F 86.1 °F 63.1 °F 48% 30.08 in 10.0 mi South 4.6 mph - N/A   Clear
7:35 PM 84.4 °F 85.9 °F 64.2 °F 51% 30.09 in 10.0 mi Calm Calm - N/A   Clear
7:55 PM 80.6 °F 82.7 °F 66.2 °F 61% 30.09 in 10.0 mi Calm Calm - N/A   Clear
8:15 PM 74.1 °F - 67.3 °F 79% 30.09 in 10.0 mi Calm Calm - N/A   Clear
8:35 PM 72.0 °F - 67.1 °F 85% 30.09 in 10.0 mi Calm Calm - N/A   Clear
8:55 PM 70.5 °F - 66.6 °F 87% 30.10 in 10.0 mi Calm Calm - N/A   Clear
9:15 PM 68.9 °F - 65.7 °F 89% 30.11 in 10.0 mi Calm Calm - N/A   Clear
9:35 PM 68.0 °F - 65.3 °F 91% 30.12 in 10.0 mi Calm Calm - N/A   Clear
9:55 PM 67.1 °F - 65.1 °F 93% 30.12 in 10.0 mi Calm Calm - N/A   Clear
10:15 PM 66.9 °F - 64.6 °F 92% 30.13 in 10.0 mi Calm Calm - N/A   Clear
10:55 PM 65.8 °F - 64.2 °F 94% 30.14 in 4.0 mi Calm Calm - N/A   Clear
11:15 PM 65.8 °F - 64.4 °F 95% 30.14 in 10.0 mi Calm Calm - N/A   Clear
11:35 PM 65.7 °F - 64.6 °F 96% 30.14 in 7.0 mi Calm Calm - N/A   Scattered Clouds
11:55 PM 65.3 °F - 64.2 °F 96% 30.14 in 7.0 mi Calm Calm - N/A   Clear